Dewpoint
56 56 56 55 55 56 55 55 56 56 56 57 57 57 57 58 59 60 60 61 61 62 62 62 62 61 61 62 62 63 63 63 64 64 64 63 63 63 63 63 62 62
54 54 55 55 54 54 54 54 55 55 55 56 56 55 56 56 57 58 59 59 60 60 61 62 62 62 62 62 62 62 63 63 63 64 63 63 63 63 63 62 62 62
52 52 52 52 53 53 52 53 53 53 53 53 53 53 54 55 55 55 57 57 58 57 56 57 59 60 60 61 62 62 62 63 63 63 63 63 63 63 62 62 62 62
50 51 51 50 51 51 51 51 51 51 52 51 51 51 51 52 51 52 54 54 56 53 53 53 54 54 54 56 58 60 62 62 63 63 63 63 62 62 62 62 62 62
49 49 50 50 50 50 49 50 50 50 50 50 50 49 49 49 49 50 50 51 54 51 51 51 51 51 51 51 53 55 57 59 61 62 62 62 62 62 62 62 62 61
48 48 49 49 49 49 49 49 49 48 48 49 49 49 48 48 48 48 48 49 52 51 48 48 48 48 48 49 49 51 52 53 54 56 59 61 62 62 62 62 62 61
48 48 48 48 48 48 48 47 48 47 47 48 48 47 47 47 47 47 46 47 48 50 46 46 46 45 46 47 47 47 47 49 51 52 54 57 60 61 62 62 62 61
48 48 48 47 47 46 46 46 46 46 46 45 45 46 46 46 46 46 45 45 46 48 47 45 44 44 44 44 44 44 44 45 47 47 49 52 56 58 61 61 61 61
47 47 47 46 46 45 45 45 45 45 44 43 43 44 44 45 45 45 45 44 45 46 46 44 44 43 43 43 43 43 42 43 44 45 46 49 52 55 58 60 61 61
46 46 46 46 45 45 44 44 44 44 44 42 42 42 42 43 44 44 44 44 44 44 44 44 43 43 42 42 42 42 42 42 43 43 44 46 49 52 55 59 60 61
46 46 45 45 45 44 44 44 43 43 43 43 42 41 41 41 42 43 43 43 43 43 43 43 43 42 42 42 41 41 41 41 42 43 44 44 46 49 54 56 59 60
45 45 45 45 45 44 44 44 43 43 42 42 42 41 41 41 41 41 42 42 42 42 43 43 42 42 41 41 41 41 41 41 42 42 43 44 45 47 50 53 57 60
44 44 45 44 44 44 44 44 43 43 42 42 42 41 41 40 41 41 41 41 42 42 42 42 42 41 41 41 40 40 40 41 41 42 43 44 46 46 48 50 54 58
44 44 45 45 45 44 43 43 43 43 43 42 42 41 41 40 40 40 40 41 41 41 41 42 41 41 41 40 40 40 40 41 41 42 43 44 45 46 48 49 52 56
44 44 43 44 44 44 43 42 42 42 42 42 41 40 41 40 40 40 40 40 40 40 40 41 41 41 41 40 40 40 40 41 41 42 44 45 46 47 48 50 52 55
42 43 42 42 43 43 43 42 41 41 41 41 40 40 39 40 39 39 40 39 39 39 40 41 41 41 42 41 41 40 40 41 42 44 46 47 48 48 49 51 53 54
39 39 39 40 41 42 42 43 42 41 40 40 40 40 39 39 39 38 39 39 39 39 39 40 40 40 39 38 38 39 41 42 43 46 48 49 49 48 49 49 49 50
38 38 37 38 38 38 39 40 40 40 40 40 40 40 39 39 38 38 38 38 39 39 39 39 39 40 38 38 38 38 40 42 44 46 46 46 46 46 47 47 47 47
36 36 36 36 36 37 37 37 37 37 38 39 39 40 39 38 38 38 38 38 38 38 39 39 39 39 38 38 38 38 38 41 43 45 45 45 45 45 45 45 45 46
35 35 34 35 35 35 35 34 34 35 36 37 38 38 37 37 37 37 37 37 38 38 38 38 38 39 38 38 38 38 38 40 42 44 44 44 44 44 44 44 44 44
34 34 34 34 34 34 34 33 33 33 34 36 36 36 37 36 36 36 37 37 37 37 38 38 38 38 37 37 37 37 38 40 42 43 42 42 42 42 43 43 43 44
33 33 33 33 33 33 32 32 32 32 33 34 35 34 35 36 35 35 36 36 36 37 37 37 38 38 37 37 37 37 38 40 41 41 41 41 41 41 41 42 42 43
33 33 33 32 32 32 32 32 32 31 32 35 32 33 34 35 35 34 35 35 36 36 37 36 37 38 37 37 37 37 39 39 40 40 40 40 41 41 41 41 41 42
34 33 32 33 32 32 32 32 32 31 31 33 32 32 33 34 35 34 34 35 35 35 37 36 37 38 37 37 37 37 39 39 39 40 40 40 40 41 41 41 41 43
34 34 32 32 31 32 32 32 32 32 32 32 32 32 33 33 36 33 34 34 34 35 38 36 37 38 38 37 37 37 38 38 39 39 40 40 40 40 40 40 40 42
34 35 34 32 31 31 32 32 33 31 31 31 32 32 33 33 34 34 33 34 34 34 35 35 37 37 38 37 37 37 38 38 38 38 38 39 39 39 39 39 40 40